Other Public Products
Issued by NWS Charleston, SC

Current Version | Previous Version | Graphics & Text | Print | Product List | Glossary On
Versions: 1 2 3 4 5 6 7 8 9 10 11 12 13 14 15 16 17 18 19 20 21 22 23 24 25 26 27 28 29 30 31 32 33 34 35 36 37 38 39 40 41 42 43 44 45 46 47 48 49 50
335 FPUS82 KCHS 220412 OPUCHS TEST...KCHS/KSAV Gateway Observations...TEST National Weather Service Charleston SC 1200 AM EDT TUE MAY 22 2018 NOTE: "fair" indicates few or no clouds below 12,000 feet with no significant weather and/or obstructions to visibility. SCZ050-WAZ558-NCZ071-TXZ119-213-PAZ071-DCZ001-FLZ074-172-MI076- NYZ176-178-MAZ016-IL014-TNZ027-NJZ106-GAZ044-MD014-220500- ...Gateway Observations for Charleston International... CITY SKY/WX TMP DP RH WIND PRES REMARKS Chas Airport FAIR 74 71 91 SE6 30.14S Seattle PTCLDY 63 46 54 NW7 30.00S Charlotte RAIN 71 69 93 SE7 30.15F FOG Dallas DFW MOCLDY 77 68 73 SE7 29.95S Dallas Love CLOUDY 78 69 73 SE13 29.97R Philladelphia FAIR 63 52 67 S5 30.17F Wash National MOCLDY 68 59 73 S7 30.16S Baltimore MOCLDY 66 60 81 S3 30.15S Miami CLOUDY 78 72 81 SE13 30.06F Detroit CLOUDY 55 47 74 CALM 30.06F Newark MOCLDY 64 47 53 SW9 30.15S Laguardia MOCLDY 67 46 47 SW5 30.15S J F K MOCLDY 59 52 77 S6 30.17S Boston Logan MOCLDY 62 49 62 SW10 30.13S Ft. Lauderdale MOCLDY 79 74 84 SE18 30.05F Chicago O`Hare FAIR 55 53 93 N3 29.99S FOG Chicago Midway CLOUDY 58 58 100 NE3 29.99S FOG Houston Bush MOCLDY 71 71 100 N5 29.97R Houston Hobby MOCLDY 72 72 100 NW7 29.97R Nashville MOCLDY 74 61 63 S3 30.07S Atlanta FAIR 71 64 78 SE7 30.11F $$ GAZ044-118-TXZ119-213-NCZ071-DCZ001-MDZ014-506-PAZ021-071-NJZ106- NYZ176-178-MAZ106-OHZ011-021-055-MIZ076-KYZ091-ILZ014-INZ047- MNZ060-ONZ431-220500- ...Gateway Observations for Savannah International... CITY SKY/WX TMP DP RH WIND PRES REMARKS Savannah Arpt MOCLDY 75 72 90 SE7 30.13F Atlanta FAIR 71 64 78 SE7 30.11F Charlotte RAIN 71 69 93 SE7 30.15F FOG Dallas DFW MOCLDY 77 68 73 SE7 29.95S Houston Bush MOCLDY 71 71 100 N5 29.97R Wash National MOCLDY 68 59 73 S7 30.16S Wash Dulles CLOUDY 69 64 84 S7 30.15S Baltimore MOCLDY 66 60 81 S3 30.15S Philadelphia FAIR 63 52 67 S5 30.17F Newark MOCLDY 64 47 53 SW9 30.15S Laguardia MOCLDY 67 46 47 SW5 30.15S J F K MOCLDY 59 52 77 S6 30.17S Boston MOCLDY 62 49 62 SW10 30.13S Pittsburg CLOUDY 72 61 68 SW6 30.07S Akron LGT RAIN 66 63 90 NE6 30.09F FOG Cleveland LGT RAIN 66 63 90 S13 30.06R Cincinnati CLOUDY 68 66 93 SE7 30.06S Columbus RAIN 65 65 100 MISG 30.09S Detroit CLOUDY 55 47 74 CALM 30.06F Chicago O`Hare FAIR 55 53 93 N3 29.99S FOG Minneapolis CLOUDY 59 55 87 SE7 30.00S Indianapolis FAIR 67 66 97 SW6 30.02S Toronto Canada CLOUDY 61 39 44 E7 30.08F $$

USA.gov is the U.S. government's official web portal to all federal, state and local government web resources and services.